Year,Month,Day,Hour,Minute,Value (Times are PST for temperature in C)
2019,03,06,00,00,-2.60
2019,03,06,00,01,-2.60
2019,03,06,00,03,-2.60
2019,03,06,00,05,-2.60
2019,03,06,00,06,-2.60
2019,03,06,00,08,-2.60
2019,03,06,00,09,-2.60
2019,03,06,00,10,-2.60
2019,03,06,00,12,-2.60
2019,03,06,00,13,-2.60
2019,03,06,00,14,-2.70
2019,03,06,00,16,-2.60
2019,03,06,00,17,-2.60
2019,03,06,00,18,-2.60
2019,03,06,00,20,-2.70
2019,03,06,00,21,-2.70
2019,03,06,00,24,-2.70
2019,03,06,00,25,-2.70
2019,03,06,00,27,-2.70
2019,03,06,00,28,-2.70
2019,03,06,00,30,-2.70
2019,03,06,00,31,-2.70
2019,03,06,00,33,-2.70
2019,03,06,00,35,-2.80
2019,03,06,00,36,-2.70
2019,03,06,00,37,-2.70
2019,03,06,00,39,-2.80
2019,03,06,00,41,-2.80
2019,03,06,00,43,-2.80
2019,03,06,00,44,-2.80
2019,03,06,00,46,-2.80
2019,03,06,00,48,-2.80
2019,03,06,00,49,-2.80
2019,03,06,00,51,-2.80
2019,03,06,00,53,-2.80
2019,03,06,00,55,-2.80
2019,03,06,00,56,-2.80
2019,03,06,00,59,-2.90
2019,03,06,01,00,-2.90
2019,03,06,01,01,-2.90
2019,03,06,01,02,-2.90
2019,03,06,01,03,-2.90
2019,03,06,01,05,-3.00
2019,03,06,01,07,-3.00
2019,03,06,01,08,-3.00
2019,03,06,01,09,-3.00
2019,03,06,01,10,-3.10
2019,03,06,01,12,-3.10
2019,03,06,01,13,-3.10
2019,03,06,01,14,-3.10
2019,03,06,01,15,-3.10
2019,03,06,01,16,-3.10
2019,03,06,01,18,-3.20
2019,03,06,01,20,-3.20
2019,03,06,01,21,-3.20
2019,03,06,01,23,-3.20
2019,03,06,01,24,-3.20
2019,03,06,01,26,-3.20
2019,03,06,01,28,-3.20
2019,03,06,01,29,-3.30
2019,03,06,01,30,-3.30
2019,03,06,01,31,-3.30
2019,03,06,01,32,-3.30
2019,03,06,01,34,-3.30
2019,03,06,01,35,-3.30
2019,03,06,01,36,-3.30
2019,03,06,01,37,-3.30
2019,03,06,01,39,-3.30
2019,03,06,01,40,-3.30
2019,03,06,01,41,-3.30
2019,03,06,01,43,-3.40
2019,03,06,01,45,-3.40
2019,03,06,01,46,-3.40
2019,03,06,01,47,-3.40
2019,03,06,01,48,-3.40
2019,03,06,01,49,-3.40
2019,03,06,01,50,-3.40
2019,03,06,01,51,-3.40
2019,03,06,01,53,-3.40
2019,03,06,01,54,-3.40
2019,03,06,01,55,-3.40
2019,03,06,01,56,-3.40
2019,03,06,01,58,-3.50
2019,03,06,01,59,-3.50
2019,03,06,02,00,-3.50
2019,03,06,02,02,-3.50
2019,03,06,02,03,-3.50
2019,03,06,02,04,-3.50
2019,03,06,02,06,-3.50
2019,03,06,02,07,-3.50
2019,03,06,02,08,-3.50
2019,03,06,02,09,-3.60
2019,03,06,02,11,-3.60
2019,03,06,02,12,-3.60
2019,03,06,02,13,-3.60
2019,03,06,02,15,-3.60
2019,03,06,02,16,-3.60
2019,03,06,02,17,-3.60
2019,03,06,02,18,-3.70
2019,03,06,02,20,-3.70
2019,03,06,02,21,-3.70
2019,03,06,02,22,-3.70
2019,03,06,02,24,-3.70
2019,03,06,02,25,-3.70
2019,03,06,02,26,-3.70
2019,03,06,02,28,-3.80
2019,03,06,02,30,-3.80
2019,03,06,02,31,-3.80
2019,03,06,02,33,-3.80
2019,03,06,02,34,-3.80
2019,03,06,02,36,-3.80
2019,03,06,02,37,-3.80
2019,03,06,02,38,-3.80
2019,03,06,02,39,-3.80
2019,03,06,02,41,-3.90
2019,03,06,02,42,-3.80
2019,03,06,02,44,-3.90
2019,03,06,02,45,-3.90
2019,03,06,02,46,-3.90
2019,03,06,02,47,-3.90
2019,03,06,02,48,-3.90
2019,03,06,02,49,-3.90
2019,03,06,02,50,-3.90
2019,03,06,02,51,-3.90
2019,03,06,02,53,-3.90
2019,03,06,02,54,-3.90
2019,03,06,02,55,-3.90
2019,03,06,02,57,-3.90
2019,03,06,02,58,-3.90
2019,03,06,02,59,-3.90
2019,03,06,03,00,-3.90
2019,03,06,03,01,-3.90
2019,03,06,03,03,-3.90
2019,03,06,03,04,-3.90
2019,03,06,03,06,-3.90
2019,03,06,03,08,-4.00
2019,03,06,03,09,-3.90
2019,03,06,03,11,-4.00
2019,03,06,03,12,-4.00
2019,03,06,03,14,-4.00
2019,03,06,03,15,-4.00
2019,03,06,03,17,-4.00
2019,03,06,03,18,-4.10
2019,03,06,03,19,-4.00
2019,03,06,03,21,-4.10
2019,03,06,03,23,-4.10
2019,03,06,03,25,-4.10
2019,03,06,03,26,-4.10
2019,03,06,03,27,-4.10
2019,03,06,03,28,-4.10
2019,03,06,03,29,-4.10
2019,03,06,03,31,-4.10
2019,03,06,03,33,-4.10
2019,03,06,03,34,-4.10
2019,03,06,03,36,-4.00
2019,03,06,03,37,-4.10
2019,03,06,03,38,-4.00
2019,03,06,03,39,-4.10
2019,03,06,03,41,-4.10
2019,03,06,03,42,-4.10
2019,03,06,03,43,-4.10
2019,03,06,03,44,-4.10
2019,03,06,03,46,-4.10
2019,03,06,03,47,-4.10
2019,03,06,03,49,-4.10
2019,03,06,03,50,-4.10
2019,03,06,03,51,-4.10
2019,03,06,03,52,-4.10
2019,03,06,03,54,-4.10
2019,03,06,03,55,-4.10
2019,03,06,03,56,-4.10
2019,03,06,03,57,-4.10
2019,03,06,03,58,-4.10
2019,03,06,04,00,-4.10
2019,03,06,04,01,-4.10
2019,03,06,04,02,-4.10
2019,03,06,04,03,-4.10
2019,03,06,04,05,-4.10
2019,03,06,04,06,-4.10
2019,03,06,04,08,-4.10
2019,03,06,04,10,-4.20
2019,03,06,04,11,-4.10
2019,03,06,04,12,-4.10
2019,03,06,04,13,-4.10
2019,03,06,04,14,-4.10
2019,03,06,04,16,-4.10
2019,03,06,04,17,-4.10
2019,03,06,04,18,-4.10
2019,03,06,04,19,-4.10
2019,03,06,04,21,-4.10
2019,03,06,04,22,-4.10
2019,03,06,04,23,-4.20
2019,03,06,04,24,-4.10
2019,03,06,04,25,-4.10
2019,03,06,04,27,-4.10
2019,03,06,04,29,-4.20
2019,03,06,04,31,-4.20
2019,03,06,04,32,-4.20
2019,03,06,04,34,-4.10
2019,03,06,04,35,-4.10
2019,03,06,04,36,-4.10
2019,03,06,04,38,-4.10
2019,03,06,04,40,-4.10
2019,03,06,04,41,-4.20
2019,03,06,04,42,-4.10
2019,03,06,04,43,-4.10
2019,03,06,04,45,-4.10
2019,03,06,04,46,-4.20
2019,03,06,04,47,-4.10
2019,03,06,04,49,-4.10
2019,03,06,04,50,-4.20
2019,03,06,04,51,-4.10
2019,03,06,04,53,-4.20
2019,03,06,04,54,-4.20
2019,03,06,04,55,-4.10
2019,03,06,04,56,-4.20
2019,03,06,04,58,-4.20
2019,03,06,04,59,-4.20
2019,03,06,05,00,-4.20
2019,03,06,05,01,-4.20
2019,03,06,05,02,-4.20
2019,03,06,05,04,-4.20
2019,03,06,05,05,-4.20
2019,03,06,05,07,-4.20
2019,03,06,05,08,-4.30
2019,03,06,05,09,-4.30
2019,03,06,05,10,-4.30
2019,03,06,05,12,-4.30
2019,03,06,05,13,-4.30
2019,03,06,05,15,-4.30
2019,03,06,05,16,-4.30
2019,03,06,05,17,-4.30
2019,03,06,05,18,-4.30
2019,03,06,05,20,-4.30
2019,03,06,05,21,-4.40
2019,03,06,05,23,-4.40
2019,03,06,05,24,-4.40
2019,03,06,05,26,-4.40
2019,03,06,05,28,-4.40
2019,03,06,05,29,-4.40
2019,03,06,05,30,-4.40
2019,03,06,05,32,-4.40
2019,03,06,05,33,-4.50
2019,03,06,05,34,-4.50
2019,03,06,05,35,-4.50
2019,03,06,05,36,-4.50
2019,03,06,05,37,-4.50
2019,03,06,05,38,-4.60
2019,03,06,05,39,-4.60
2019,03,06,05,40,-4.60
2019,03,06,05,42,-4.60
2019,03,06,05,44,-4.60
2019,03,06,05,45,-4.60
2019,03,06,05,46,-4.60
2019,03,06,05,48,-4.60
2019,03,06,05,49,-4.60
2019,03,06,05,50,-4.60
2019,03,06,05,52,-4.60
2019,03,06,05,53,-4.60
2019,03,06,05,55,-4.60
2019,03,06,05,56,-4.60
2019,03,06,05,57,-4.60
2019,03,06,05,58,-4.60
2019,03,06,06,00,-4.60
2019,03,06,06,01,-4.60
2019,03,06,06,03,-4.60
2019,03,06,06,05,-4.60
2019,03,06,06,06,-4.60
2019,03,06,06,07,-4.60
2019,03,06,06,08,-4.60
2019,03,06,06,09,-4.60
2019,03,06,06,10,-4.60
2019,03,06,06,11,-4.60
2019,03,06,06,12,-4.60
2019,03,06,06,14,-4.60
2019,03,06,06,15,-4.60
2019,03,06,06,16,-4.60
2019,03,06,06,18,-4.60
2019,03,06,06,19,-4.60
2019,03,06,06,20,-4.60
2019,03,06,06,22,-4.60
2019,03,06,06,23,-4.60
2019,03,06,06,25,-4.60
2019,03,06,06,26,-4.60
2019,03,06,06,27,-4.60
2019,03,06,06,29,-4.60
2019,03,06,06,30,-4.60
2019,03,06,06,32,-4.60
2019,03,06,06,33,-4.60
2019,03,06,06,34,-4.60
2019,03,06,06,35,-4.60
2019,03,06,06,36,-4.60
2019,03,06,06,37,-4.60
2019,03,06,06,38,-4.60
2019,03,06,06,40,-4.60
2019,03,06,06,41,-4.60
2019,03,06,06,42,-4.60
2019,03,06,06,43,-4.60
2019,03,06,06,44,-4.60
2019,03,06,06,45,-4.60
2019,03,06,06,47,-4.60
2019,03,06,06,48,-4.60
2019,03,06,06,50,-4.60
2019,03,06,06,51,-4.60
2019,03,06,06,53,-4.60
2019,03,06,06,54,-4.60
2019,03,06,06,55,-4.60
2019,03,06,06,56,-4.60
2019,03,06,06,58,-4.60
2019,03,06,06,59,-4.60
2019,03,06,07,01,-4.60
2019,03,06,07,03,-4.60
2019,03,06,07,04,-4.60
2019,03,06,07,05,-4.60
2019,03,06,07,07,-4.60
2019,03,06,07,08,-4.60
2019,03,06,07,09,-4.60
2019,03,06,07,10,-4.60
2019,03,06,07,12,-4.60
2019,03,06,07,13,-4.60
2019,03,06,07,15,-4.60
2019,03,06,07,16,-4.50
2019,03,06,07,17,-4.50
2019,03,06,07,18,-4.50
2019,03,06,07,19,-4.50
2019,03,06,07,20,-4.50
2019,03,06,07,21,-4.50
2019,03,06,07,23,-4.50
2019,03,06,07,24,-4.50
2019,03,06,07,25,-4.50
2019,03,06,07,26,-4.50
2019,03,06,07,27,-4.50
2019,03,06,07,29,-4.50
2019,03,06,07,31,-4.40
2019,03,06,07,33,-4.40
2019,03,06,07,35,-4.40
2019,03,06,07,37,-4.40
2019,03,06,07,38,-4.40
2019,03,06,07,40,-4.40
2019,03,06,07,41,-4.40
2019,03,06,07,43,-4.40
2019,03,06,07,45,-4.30
2019,03,06,07,46,-4.30
2019,03,06,07,47,-4.30
2019,03,06,07,48,-4.30
2019,03,06,07,50,-4.30
2019,03,06,07,51,-4.30
2019,03,06,07,52,-4.30
2019,03,06,07,54,-4.30
2019,03,06,07,55,-4.20
2019,03,06,07,56,-4.20
2019,03,06,07,57,-4.20
2019,03,06,08,00,-4.20
2019,03,06,08,01,-4.10
2019,03,06,08,03,-4.10
2019,03,06,08,04,-4.10
2019,03,06,08,05,-4.10
2019,03,06,08,07,-4.00
2019,03,06,08,08,-4.00
2019,03,06,08,09,-3.90
2019,03,06,08,11,-3.90
2019,03,06,08,12,-3.90
2019,03,06,08,13,-3.90
2019,03,06,08,14,-3.90
2019,03,06,08,15,-3.80
2019,03,06,08,16,-3.80
2019,03,06,08,18,-3.80
2019,03,06,08,19,-3.80
2019,03,06,08,20,-3.70
2019,03,06,08,21,-3.70
2019,03,06,08,22,-3.70
2019,03,06,08,23,-3.70
2019,03,06,08,24,-3.60
2019,03,06,08,26,-3.60
2019,03,06,08,28,-3.50
2019,03,06,08,29,-3.40
2019,03,06,08,30,-3.40
2019,03,06,08,31,-3.40
2019,03,06,08,32,-3.30
2019,03,06,08,33,-3.30
2019,03,06,08,34,-3.30
2019,03,06,08,36,-3.30
2019,03,06,08,37,-3.20
2019,03,06,08,38,-3.20
2019,03,06,08,40,-3.10
2019,03,06,08,41,-3.10
2019,03,06,08,43,-3.00
2019,03,06,08,44,-2.90
2019,03,06,08,45,-2.90
2019,03,06,08,46,-2.90
2019,03,06,08,47,-2.80
2019,03,06,08,49,-2.70
2019,03,06,08,50,-2.70
2019,03,06,08,51,-2.70
2019,03,06,08,53,-2.50
2019,03,06,08,54,-2.40
2019,03,06,08,56,-2.30
2019,03,06,08,57,-2.30
2019,03,06,08,59,-2.20
2019,03,06,09,01,-2.10
2019,03,06,09,02,-2.00
2019,03,06,09,03,-1.90
2019,03,06,09,04,-1.90
2019,03,06,09,05,-1.80
2019,03,06,09,07,-1.70
2019,03,06,09,09,-1.60
2019,03,06,09,11,-1.50
2019,03,06,09,12,-1.40
2019,03,06,09,13,-1.40
2019,03,06,09,14,-1.30
2019,03,06,09,15,-1.30
2019,03,06,09,16,-1.30
2019,03,06,09,17,-1.20
2019,03,06,09,18,-1.20
2019,03,06,09,19,-1.10
2019,03,06,09,21,-1.00
2019,03,06,09,22,-0.90
2019,03,06,09,24,-0.80
2019,03,06,09,25,-0.70
2019,03,06,09,26,-0.70
2019,03,06,09,27,-0.50
2019,03,06,09,29,-0.30
2019,03,06,09,31,-0.30
2019,03,06,09,32,-0.30
2019,03,06,09,33,-0.20
2019,03,06,09,34,-0.20
2019,03,06,09,36,-0.20
2019,03,06,09,37,-0.20
2019,03,06,09,38,-0.20
2019,03,06,09,39,-0.20
2019,03,06,09,40,-0.20
2019,03,06,09,41,-0.20
2019,03,06,09,42,-0.20
2019,03,06,09,43,-0.20
2019,03,06,09,44,-0.10
2019,03,06,09,45,-0.10
2019,03,06,09,46,0.00
2019,03,06,09,47,0.10
2019,03,06,09,49,0.20
2019,03,06,09,50,0.30
2019,03,06,09,51,0.30
2019,03,06,09,53,0.40
2019,03,06,09,55,0.50
2019,03,06,09,56,0.60
2019,03,06,09,57,0.60
2019,03,06,09,59,0.70
2019,03,06,10,00,0.70
2019,03,06,10,01,0.70
2019,03,06,10,02,0.70
2019,03,06,10,03,0.70
2019,03,06,10,04,0.80
2019,03,06,10,05,0.80
2019,03,06,10,06,0.80
2019,03,06,10,07,0.80
2019,03,06,10,08,0.90
2019,03,06,10,10,1.00
2019,03,06,10,11,1.10
2019,03,06,10,12,1.10
2019,03,06,10,13,1.10
2019,03,06,10,14,1.20
2019,03,06,10,15,1.20
2019,03,06,10,16,1.20
2019,03,06,10,17,1.20
2019,03,06,10,19,1.30
2019,03,06,10,20,1.30
2019,03,06,10,21,1.30
2019,03,06,10,22,1.20
2019,03,06,10,24,1.30
2019,03,06,10,25,1.30
2019,03,06,10,27,1.30
2019,03,06,10,28,1.30
2019,03,06,10,29,1.30
2019,03,06,10,30,1.30
2019,03,06,10,31,1.40
2019,03,06,10,32,1.40
2019,03,06,10,33,1.40
2019,03,06,10,35,1.40
2019,03,06,10,36,1.50
2019,03,06,10,38,1.60
2019,03,06,10,39,1.60
2019,03,06,10,41,1.70
2019,03,06,10,43,1.80
2019,03,06,10,44,1.90
2019,03,06,10,46,1.90
2019,03,06,10,47,2.10
2019,03,06,10,49,2.20
2019,03,06,10,50,2.20
2019,03,06,10,52,2.20
2019,03,06,10,53,2.30
2019,03,06,10,55,2.30
2019,03,06,10,56,2.30
2019,03,06,10,58,2.50
2019,03,06,11,00,2.60
2019,03,06,11,02,2.60
2019,03,06,11,04,2.70
2019,03,06,11,06,2.90
2019,03,06,11,08,3.00
2019,03,06,11,10,3.20
2019,03,06,11,11,3.30
2019,03,06,11,12,3.40
2019,03,06,11,14,3.40
2019,03,06,11,15,3.40
2019,03,06,11,17,3.50
2019,03,06,11,18,3.60
2019,03,06,11,19,3.60
2019,03,06,11,21,3.80
2019,03,06,11,23,4.00
2019,03,06,11,25,4.10
2019,03,06,11,26,4.20
2019,03,06,11,27,4.20
2019,03,06,11,29,4.30
2019,03,06,11,30,4.40
2019,03,06,11,32,4.40
2019,03,06,11,33,4.60
2019,03,06,11,35,4.60
2019,03,06,11,36,4.60
2019,03,06,11,38,4.60
2019,03,06,11,39,4.60
2019,03,06,11,41,4.60
2019,03,06,11,42,4.60
2019,03,06,11,44,4.60
2019,03,06,11,46,4.60
2019,03,06,11,47,4.70
2019,03,06,11,50,4.70
2019,03,06,11,51,4.70
2019,03,06,11,52,4.70
2019,03,06,11,53,4.80
2019,03,06,11,54,4.80
2019,03,06,11,56,4.90
2019,03,06,11,57,5.00
2019,03,06,11,58,5.10
2019,03,06,12,00,5.10
2019,03,06,12,02,5.40
2019,03,06,12,03,5.50
2019,03,06,12,05,5.50
2019,03,06,12,06,5.60
2019,03,06,12,07,5.50
2019,03,06,12,09,5.40
2019,03,06,12,10,5.40
2019,03,06,12,13,5.30
2019,03,06,12,15,5.30
2019,03,06,12,16,5.30
2019,03,06,12,17,5.30
2019,03,06,12,19,5.50
2019,03,06,12,20,5.60
2019,03,06,12,21,5.60
2019,03,06,12,23,5.70
2019,03,06,12,24,5.70
2019,03,06,12,26,5.70
2019,03,06,12,27,5.70
2019,03,06,12,28,5.70
2019,03,06,12,29,5.60
2019,03,06,12,31,5.60
2019,03,06,12,33,5.60
2019,03,06,12,34,5.70
2019,03,06,12,36,5.70
2019,03,06,12,37,5.80
2019,03,06,12,38,5.90
2019,03,06,12,40,6.00
2019,03,06,12,42,6.20
2019,03,06,12,44,6.30
2019,03,06,12,45,6.30
2019,03,06,12,47,6.30
2019,03,06,12,48,6.30
2019,03,06,12,49,6.30
2019,03,06,12,50,6.20
2019,03,06,12,51,6.20
2019,03,06,12,52,6.20
2019,03,06,12,54,6.20
2019,03,06,12,55,6.20
2019,03,06,12,56,6.20
2019,03,06,12,58,6.30
2019,03,06,13,00,6.30
2019,03,06,13,02,6.30
2019,03,06,13,03,6.30
2019,03,06,13,04,6.40
2019,03,06,13,06,6.40
2019,03,06,13,07,6.40
2019,03,06,13,08,6.40
2019,03,06,13,09,6.50
2019,03,06,13,10,6.60
2019,03,06,13,12,6.70
2019,03,06,13,14,6.80
2019,03,06,13,16,6.90
2019,03,06,13,17,6.90
2019,03,06,13,18,6.90
2019,03,06,13,20,6.90
2019,03,06,13,21,7.00
2019,03,06,13,22,6.90
2019,03,06,13,23,6.90
2019,03,06,13,24,6.90
2019,03,06,13,26,6.80
2019,03,06,13,27,6.80
2019,03,06,13,29,6.80
2019,03,06,13,30,6.80
2019,03,06,13,31,6.80
2019,03,06,13,32,6.80
2019,03,06,13,33,6.80
2019,03,06,13,34,6.80
2019,03,06,13,35,6.80
2019,03,06,13,36,6.80
2019,03,06,13,38,6.90
2019,03,06,13,39,6.90
2019,03,06,13,41,7.20
2019,03,06,13,42,7.30
2019,03,06,13,44,7.50
2019,03,06,13,46,7.70
2019,03,06,13,47,7.80
2019,03,06,13,48,7.80
2019,03,06,13,50,7.80
2019,03,06,13,52,7.80
2019,03,06,13,54,7.80
2019,03,06,13,55,7.80
2019,03,06,13,57,7.80
2019,03,06,13,58,7.90
2019,03,06,14,00,8.20
2019,03,06,14,01,8.30
2019,03,06,14,02,8.30
2019,03,06,14,03,8.40
2019,03,06,14,04,8.40
2019,03,06,14,05,8.60
2019,03,06,14,06,8.60
2019,03,06,14,08,8.70
2019,03,06,14,11,8.80
2019,03,06,14,13,9.00
2019,03,06,14,14,9.20
2019,03,06,14,16,9.20
2019,03,06,14,17,9.30
2019,03,06,14,18,9.30
2019,03,06,14,19,9.20
2019,03,06,14,20,9.10
2019,03,06,14,21,9.10
2019,03,06,14,23,9.00
2019,03,06,14,25,8.90
2019,03,06,14,27,8.80
2019,03,06,14,28,8.80
2019,03,06,14,29,8.80
2019,03,06,14,30,8.80
2019,03,06,14,31,8.80
2019,03,06,14,33,8.90
2019,03,06,14,35,8.90
2019,03,06,14,36,9.10
2019,03,06,14,38,9.30
2019,03,06,14,40,9.40
2019,03,06,14,42,9.60
2019,03,06,14,44,9.70
2019,03,06,14,45,9.70
2019,03,06,14,46,9.70
2019,03,06,14,47,9.70
2019,03,06,14,49,9.80
2019,03,06,14,50,9.80
2019,03,06,14,52,9.80
2019,03,06,14,54,9.90
2019,03,06,14,55,9.90
2019,03,06,14,56,9.90
2019,03,06,14,57,9.90
2019,03,06,14,58,9.80
2019,03,06,15,00,9.80
2019,03,06,15,01,9.80
2019,03,06,15,03,9.90
2019,03,06,15,05,10.00
2019,03,06,15,06,10.00
2019,03,06,15,08,9.90
2019,03,06,15,09,9.90
2019,03,06,15,10,9.90
2019,03,06,15,11,9.90
2019,03,06,15,12,9.90
2019,03,06,15,13,9.90
2019,03,06,15,14,10.00
2019,03,06,15,16,9.90
2019,03,06,15,18,9.80
2019,03,06,15,19,9.70
2019,03,06,15,20,9.70
2019,03,06,15,22,9.60
2019,03,06,15,23,9.60
2019,03,06,15,24,9.60
2019,03,06,15,25,9.60
2019,03,06,15,27,9.60
2019,03,06,15,29,9.70
2019,03,06,15,30,9.80
2019,03,06,15,32,9.90
2019,03,06,15,34,10.10
2019,03,06,15,35,10.20
2019,03,06,15,36,10.20
2019,03,06,15,37,10.30
2019,03,06,15,38,10.30
2019,03,06,15,40,10.30
2019,03,06,15,41,10.30
2019,03,06,15,42,10.10
2019,03,06,15,43,10.10
2019,03,06,15,45,10.10
2019,03,06,15,46,10.10
2019,03,06,15,48,10.10
2019,03,06,15,49,10.20
2019,03,06,15,51,10.20
2019,03,06,15,52,10.30
2019,03,06,15,53,10.40
2019,03,06,15,54,10.40
2019,03,06,15,55,10.50
2019,03,06,15,56,10.60
2019,03,06,15,58,10.70
2019,03,06,16,00,10.70
2019,03,06,16,02,10.70
2019,03,06,16,03,10.50
2019,03,06,16,04,10.40
2019,03,06,16,05,10.40
2019,03,06,16,06,10.30
2019,03,06,16,08,10.30
2019,03,06,16,10,10.10
2019,03,06,16,11,10.00
2019,03,06,16,12,10.00
2019,03,06,16,13,9.90
2019,03,06,16,14,9.80
2019,03,06,16,15,9.80
2019,03,06,16,16,9.70
2019,03,06,16,18,9.50
2019,03,06,16,19,9.30
2019,03,06,16,20,9.30
2019,03,06,16,21,9.20
2019,03,06,16,23,9.20
2019,03,06,16,24,9.20
2019,03,06,16,25,9.10
2019,03,06,16,26,9.10
2019,03,06,16,27,9.10
2019,03,06,16,29,9.10
2019,03,06,16,30,9.00
2019,03,06,16,32,9.00
2019,03,06,16,33,8.90
2019,03,06,16,35,8.90
2019,03,06,16,36,8.90
2019,03,06,16,37,8.80
2019,03,06,16,38,8.80
2019,03,06,16,39,8.80
2019,03,06,16,40,8.80
2019,03,06,16,42,8.80
2019,03,06,16,43,8.80
2019,03,06,16,44,8.80
2019,03,06,16,45,8.80
2019,03,06,16,46,8.80
2019,03,06,16,47,8.70
2019,03,06,16,48,8.70
2019,03,06,16,49,8.60
2019,03,06,16,50,8.60
2019,03,06,16,51,8.60
2019,03,06,16,52,8.50
2019,03,06,16,53,8.50
2019,03,06,16,54,8.40
2019,03,06,16,55,8.40
2019,03,06,16,56,8.40
2019,03,06,16,57,8.40
2019,03,06,16,58,8.40
2019,03,06,16,59,8.40
2019,03,06,17,00,8.40
2019,03,06,17,02,8.40
2019,03,06,17,03,8.30
2019,03,06,17,04,8.30
2019,03,06,17,05,8.30
2019,03,06,17,06,8.30
2019,03,06,17,07,8.30
2019,03,06,17,08,8.30
2019,03,06,17,09,8.30
2019,03,06,17,10,8.30
2019,03,06,17,12,8.30
2019,03,06,17,13,8.30
2019,03,06,17,14,8.30
2019,03,06,17,15,8.30
2019,03,06,17,16,8.20
2019,03,06,17,17,8.20
2019,03,06,17,18,8.10
2019,03,06,17,20,8.10
2019,03,06,17,21,8.10
2019,03,06,17,22,8.00
2019,03,06,17,23,7.90
2019,03,06,17,24,7.90
2019,03,06,17,25,7.80
2019,03,06,17,27,7.80
2019,03,06,17,28,7.70
2019,03,06,17,29,7.70
2019,03,06,17,30,7.60
2019,03,06,17,31,7.60
2019,03,06,17,32,7.50
2019,03,06,17,34,7.50
2019,03,06,17,35,7.40
2019,03,06,17,36,7.40
2019,03,06,17,37,7.30
2019,03,06,17,38,7.30
2019,03,06,17,39,7.30
2019,03,06,17,41,7.20
2019,03,06,17,42,7.20
2019,03,06,17,43,7.10
2019,03,06,17,44,7.10
2019,03,06,17,45,7.10
2019,03,06,17,46,7.00
2019,03,06,17,48,7.00
2019,03,06,17,49,6.90
2019,03,06,17,50,6.90
2019,03,06,17,52,6.80
2019,03,06,17,53,6.80
2019,03,06,17,54,6.80
2019,03,06,17,55,6.70
2019,03,06,17,56,6.70
2019,03,06,17,57,6.70
2019,03,06,17,58,6.70
2019,03,06,17,59,6.60
2019,03,06,18,01,6.60
2019,03,06,18,02,6.60
2019,03,06,18,03,6.50
2019,03,06,18,04,6.50
2019,03,06,18,05,6.40
2019,03,06,18,07,6.40
2019,03,06,18,09,6.40
2019,03,06,18,10,6.40
2019,03,06,18,11,6.30
2019,03,06,18,12,6.30
2019,03,06,18,14,6.30
2019,03,06,18,16,6.30
2019,03,06,18,17,6.20
2019,03,06,18,18,6.20
2019,03,06,18,19,6.20
2019,03,06,18,20,6.20
2019,03,06,18,21,6.20
2019,03,06,18,23,6.20
2019,03,06,18,24,6.10
2019,03,06,18,25,6.10
2019,03,06,18,26,6.10
2019,03,06,18,27,6.10
2019,03,06,18,28,6.10
2019,03,06,18,29,6.10
2019,03,06,18,30,6.10
2019,03,06,18,31,6.00
2019,03,06,18,32,6.00
2019,03,06,18,33,6.00
2019,03,06,18,34,5.90
2019,03,06,18,35,5.90
2019,03,06,18,36,5.90
2019,03,06,18,37,5.90
2019,03,06,18,38,5.90
2019,03,06,18,39,5.90
2019,03,06,18,40,5.90
2019,03,06,18,41,5.80
2019,03,06,18,42,5.80
2019,03,06,18,43,5.80
2019,03,06,18,44,5.80
2019,03,06,18,45,5.80
2019,03,06,18,46,5.80
2019,03,06,18,47,5.80
2019,03,06,18,48,5.80
2019,03,06,18,49,5.70
2019,03,06,18,50,5.70
2019,03,06,18,51,5.70
2019,03,06,18,52,5.70
2019,03,06,18,53,5.70
2019,03,06,18,54,5.70
2019,03,06,18,55,5.70
2019,03,06,18,56,5.60
2019,03,06,18,57,5.60
2019,03,06,18,58,5.60
2019,03,06,18,59,5.60
2019,03,06,19,00,5.60
2019,03,06,19,01,5.60
2019,03,06,19,02,5.60
2019,03,06,19,04,5.60
2019,03,06,19,05,5.60
2019,03,06,19,06,5.50
2019,03,06,19,08,5.50
2019,03,06,19,09,5.50
2019,03,06,19,10,5.40
2019,03,06,19,11,5.40
2019,03,06,19,12,5.40
2019,03,06,19,14,5.40
2019,03,06,19,15,5.40
2019,03,06,19,16,5.40
2019,03,06,19,17,5.40
2019,03,06,19,18,5.40
2019,03,06,19,19,5.40
2019,03,06,19,20,5.40
2019,03,06,19,21,5.30
2019,03,06,19,22,5.30
2019,03,06,19,23,5.30
2019,03,06,19,24,5.30
2019,03,06,19,25,5.30
2019,03,06,19,26,5.30
2019,03,06,19,27,5.30
2019,03,06,19,28,5.30
2019,03,06,19,29,5.30
2019,03,06,19,30,5.30
2019,03,06,19,31,5.30
2019,03,06,19,32,5.20
2019,03,06,19,33,5.20
2019,03,06,19,34,5.20
2019,03,06,19,35,5.20
2019,03,06,19,36,5.20
2019,03,06,19,37,5.20
2019,03,06,19,38,5.20
2019,03,06,19,39,5.20
2019,03,06,19,40,5.20
2019,03,06,19,41,5.20
2019,03,06,19,42,5.10
2019,03,06,19,43,5.10
2019,03,06,19,44,5.10
2019,03,06,19,45,5.10
2019,03,06,19,46,5.10
2019,03,06,19,47,5.10
2019,03,06,19,48,5.10
2019,03,06,19,49,5.00
2019,03,06,19,50,5.00
2019,03,06,19,51,5.00
2019,03,06,19,52,4.90
2019,03,06,19,53,4.90
2019,03,06,19,54,4.90
2019,03,06,19,55,4.90
2019,03,06,19,56,4.90
2019,03,06,19,57,4.90
2019,03,06,19,58,4.80
2019,03,06,19,59,4.80
2019,03,06,20,00,4.80
2019,03,06,20,01,4.80
2019,03,06,20,02,4.80
2019,03,06,20,03,4.80
2019,03,06,20,04,4.80
2019,03,06,20,05,4.80
2019,03,06,20,06,4.80
2019,03,06,20,07,4.80
2019,03,06,20,08,4.70
2019,03,06,20,09,4.70
2019,03,06,20,10,4.70
2019,03,06,20,11,4.70
2019,03,06,20,12,4.70
2019,03,06,20,13,4.70
2019,03,06,20,14,4.70
2019,03,06,20,15,4.70
2019,03,06,20,16,4.70
2019,03,06,20,17,4.60
2019,03,06,20,18,4.60
2019,03,06,20,19,4.60
2019,03,06,20,20,4.60
2019,03,06,20,21,4.60
2019,03,06,20,22,4.50
2019,03,06,20,23,4.50
2019,03,06,20,24,4.50
2019,03,06,20,25,4.40
2019,03,06,20,26,4.40
2019,03,06,20,27,4.40
2019,03,06,20,28,4.40
2019,03,06,20,29,4.40
2019,03,06,20,30,4.40
2019,03,06,20,31,4.40
2019,03,06,20,32,4.40
2019,03,06,20,33,4.30
2019,03,06,20,34,4.30
2019,03,06,20,35,4.30
2019,03,06,20,36,4.30
2019,03,06,20,37,4.30
2019,03,06,20,38,4.20
2019,03,06,20,39,4.20
2019,03,06,20,40,4.20
2019,03,06,20,41,4.20
2019,03,06,20,42,4.20
2019,03,06,20,43,4.20
2019,03,06,20,44,4.20
2019,03,06,20,45,4.20
2019,03,06,20,46,4.20
2019,03,06,20,47,4.10
2019,03,06,20,48,4.10
2019,03,06,20,49,4.10
2019,03,06,20,50,4.10
2019,03,06,20,51,4.10
2019,03,06,20,52,4.10
2019,03,06,20,53,4.10
2019,03,06,20,54,4.00
2019,03,06,20,55,4.00
2019,03,06,20,56,4.00
2019,03,06,20,57,4.00
2019,03,06,20,58,4.00
2019,03,06,20,59,3.90
2019,03,06,21,00,3.90
2019,03,06,21,01,3.90
2019,03,06,21,02,3.90
2019,03,06,21,03,3.90
2019,03,06,21,04,3.80
2019,03,06,21,05,3.80
2019,03,06,21,06,3.80
2019,03,06,21,07,3.80
2019,03,06,21,08,3.80
2019,03,06,21,09,3.80
2019,03,06,21,10,3.80
2019,03,06,21,11,3.80
2019,03,06,21,12,3.80
2019,03,06,21,13,3.80
2019,03,06,21,14,3.70
2019,03,06,21,15,3.70
2019,03,06,21,16,3.70
2019,03,06,21,17,3.70
2019,03,06,21,18,3.70
2019,03,06,21,19,3.70
2019,03,06,21,20,3.70
2019,03,06,21,21,3.70
2019,03,06,21,22,3.70
2019,03,06,21,23,3.70
2019,03,06,21,24,3.70
2019,03,06,21,25,3.70
2019,03,06,21,26,3.60
2019,03,06,21,27,3.60
2019,03,06,21,28,3.60
2019,03,06,21,29,3.60
2019,03,06,21,30,3.60
2019,03,06,21,31,3.60
2019,03,06,21,32,3.60
2019,03,06,21,33,3.60
2019,03,06,21,34,3.60
2019,03,06,21,35,3.60
2019,03,06,21,36,3.60
2019,03,06,21,37,3.60
2019,03,06,21,38,3.60
2019,03,06,21,39,3.60
2019,03,06,21,40,3.60
2019,03,06,21,41,3.60
2019,03,06,21,42,3.60
2019,03,06,21,43,3.60
2019,03,06,21,44,3.50
2019,03,06,21,45,3.50
2019,03,06,21,46,3.50
2019,03,06,21,47,3.50
2019,03,06,21,48,3.40
2019,03,06,21,49,3.40
2019,03,06,21,50,3.40
2019,03,06,21,51,3.40
2019,03,06,21,52,3.40
2019,03,06,21,53,3.40
2019,03,06,21,54,3.30
2019,03,06,21,55,3.40
2019,03,06,21,56,3.30
2019,03,06,21,57,3.30
2019,03,06,21,58,3.30
2019,03,06,21,59,3.30
2019,03,06,22,00,3.30
2019,03,06,22,01,3.30
2019,03,06,22,02,3.30
2019,03,06,22,03,3.30
2019,03,06,22,04,3.30
2019,03,06,22,05,3.30
2019,03,06,22,06,3.20
2019,03,06,22,07,3.20
2019,03,06,22,08,3.20
2019,03,06,22,09,3.20
2019,03,06,22,10,3.20
2019,03,06,22,11,3.20
2019,03,06,22,12,3.10
2019,03,06,22,13,3.10
2019,03,06,22,14,3.10
2019,03,06,22,15,3.10
2019,03,06,22,16,3.10
2019,03,06,22,17,3.10
2019,03,06,22,19,3.10
2019,03,06,22,20,3.10
2019,03,06,22,21,3.00
2019,03,06,22,22,3.00
2019,03,06,22,23,3.00
2019,03,06,22,24,3.00
2019,03,06,22,25,2.90
2019,03,06,22,26,3.00
2019,03,06,22,27,2.90
2019,03,06,22,28,2.90
2019,03,06,22,29,2.90
2019,03,06,22,30,2.90
2019,03,06,22,31,2.90